Waarnemingen

Advertentie
Mijn weer
Estepona, Spanje (8463): temperatuur & dauwpunt: 15.08.2018 06:00:00 - 21.08.2018 06:00:00 (CEST)Estepona, Spanje (8463): windsnelheid & windstoten: 15.08.2018 06:00:00 - 21.08.2018 06:00:00 (CEST)Estepona, Spanje (8463): windrichting: 15.08.2018 06:00:00 - 21.08.2018 06:00:00 (CEST)Estepona, Spanje (8463): luchtdruk: 15.08.2018 06:00:00 - 21.08.2018 06:00:00 (CEST)Estepona, Spanje (8463): zicht: 15.08.2018 06:00:00 - 21.08.2018 06:00:00 (CEST)Estepona, Spanje (8463): Zonneschijnduur: 15.08.2018 06:00:00 - 21.08.2018 06:00:00 (CEST)Estepona, Spanje (8463): neerslag: 15.08.2018 06:00:00 - 21.08.2018 06:00:00 (CEST)
Datum & Tijd tt [°C] td [°C] ff [km/u] ff [kn] fx [km/u] fx [kn] dd ppp [hPa] vv [km] sd [min] rr [mm]
21.08.2018 06:00:00 - - - - - - - - - - -
21.08.2018 05:00:00 23,5 17,7 10 5 21 12 NO 1017,2 18 0 0,0
21.08.2018 04:00:00 23,8 18,5 9 5 27 14 ONO 1017,6 15 0 0,0
21.08.2018 03:00:00 - - - - - - - - - - -
21.08.2018 02:00:00 24,2 17,9 9 5 24 13 ONO 1018,2 16 0 -
21.08.2018 01:00:00 24,1 17,4 8 4 20 11 NO 1017,9 16 0 0,0
21.08.2018 00:00:00 24,3 17,5 9 5 22 12 NO 1017,8 19 0 0,0
20.08.2018 23:00:00 24,3 17,8 9 5 29 16 NO 1017,8 17 0 0,0
20.08.2018 22:00:00 24,7 18,6 12 7 27 15 NO 1017,7 11 0 0,0
20.08.2018 21:00:00 25,2 18,4 12 6 28 15 ONO 1017,5 12 29 0,0
20.08.2018 20:00:00 26,8 19,6 9 5 27 15 ONO 1017,3 11 60 -
20.08.2018 19:00:00 27,5 20,1 14 7 25 13 ONO 1017,5 13 60 0,0
20.08.2018 18:00:00 28,4 19,6 13 7 24 13 ONO 1017,9 12 60 0,0
20.08.2018 17:00:00 29,4 19,1 12 7 27 15 ONO 1018,2 15 60 0,0
20.08.2018 16:00:00 27,5 19,3 16 9 26 14 O 1018,9 17 60 0,0
20.08.2018 15:00:00 27,5 19,3 19 11 29 16 O 1019,3 15 60 0,0
20.08.2018 14:00:00 27,8 19,6 15 8 27 14 O 1019,6 9 60 -
20.08.2018 13:00:00 27,6 19,6 17 9 32 17 O 1019,8 12 60 0,0
20.08.2018 12:00:00 27,5 18,8 18 10 34 19 ONO 1019,7 14 60 0,0
20.08.2018 11:00:00 26,4 19,3 17 9 31 17 ONO 1019,6 10 51 0,0
20.08.2018 10:00:00 25,3 19,0 17 9 30 16 ONO 1019,4 9 14 0,0
20.08.2018 09:00:00 24,4 18,3 8 5 22 12 ONO 1019,1 4,1 0 0,0
20.08.2018 08:00:00 23,8 18,2 7 4 23 12 NO 1018,9 6 0 -
20.08.2018 07:00:00 23,9 18,3 13 7 27 15 ONO 1018,6 3,4 0 0,0
20.08.2018 06:00:00 24,0 18,2 9 5 19 11 NO 1018,6 7 0 0,0
20.08.2018 05:00:00 24,0 17,7 8 5 24 13 ONO 1018,5 4,6 0 0,0
20.08.2018 04:00:00 24,4 16,9 8 4 23 12 ONO 1018,9 6 0 0,0
20.08.2018 03:00:00 24,7 16,1 9 5 24 13 NO 1019,2 10 0 0,0
20.08.2018 02:00:00 24,8 16,7 8 5 26 14 ONO 1019,7 15 0 -
20.08.2018 01:00:00 24,9 16,3 10 5 25 14 NO 1019,8 12 0 0,0
20.08.2018 00:00:00 25,1 15,4 10 6 29 16 NO 1019,9 17 0 0,0
19.08.2018 23:00:00 24,9 16,0 10 6 24 13 ONO 1019,7 14 0 0,0
19.08.2018 22:00:00 24,7 18,4 10 5 26 14 ONO 1019,3 6 0 0,0
19.08.2018 21:00:00 25,2 18,8 17 9 35 19 O 1018,5 11 21 0,0
19.08.2018 20:00:00 26,8 18,4 18 10 32 17 ONO 1018,2 9 60 -
19.08.2018 19:00:00 27,6 18,6 19 10 32 17 ONO 1018,3 9 60 0,0
19.08.2018 18:00:00 28,5 18,8 18 10 37 20 ONO 1018,8 9 60 0,0
19.08.2018 17:00:00 29,2 18,6 19 10 36 19 ONO 1019,0 12 60 0,0
19.08.2018 16:00:00 28,3 18,1 14 7 22 12 O 1019,4 11 60 0,0
19.08.2018 15:00:00 28,1 18,5 15 8 23 13 O 1019,5 14 60 0,0
19.08.2018 14:00:00 28,3 18,4 13 7 26 14 ONO 1019,7 12 60 -
19.08.2018 13:00:00 28,3 18,1 16 9 28 15 ONO 1020,1 10 60 0,0
19.08.2018 12:00:00 27,7 18,4 16 9 29 16 ONO 1019,9 13 60 0,0
19.08.2018 11:00:00 27,0 18,3 16 9 32 17 ONO 1019,7 20 59 0,0
19.08.2018 10:00:00 25,8 18,5 19 10 29 16 ONO 1019,4 9 38 0,0
19.08.2018 09:00:00 24,6 18,8 10 6 21 12 O 1019,0 9 27 0,0
19.08.2018 08:00:00 24,6 18,3 8 4 22 12 NO 1018,7 16 0 -
19.08.2018 07:00:00 24,0 18,2 9 5 23 13 NO 1018,3 18 0 0,0
19.08.2018 06:00:00 23,8 18,7 6 3 24 13 ONO 1018,3 6 0 0,0
19.08.2018 05:00:00 24,2 18,4 10 5 29 16 ONO 1018,4 10 0 0,0
19.08.2018 04:00:00 24,6 18,1 11 6 29 16 ONO 1018,2 9 0 0,0
19.08.2018 03:00:00 24,6 16,0 10 5 24 13 NO 1018,0 17 0 0,0
19.08.2018 02:00:00 24,8 16,2 10 6 34 18 NO 1018,2 19 0 -
19.08.2018 01:00:00 24,9 16,6 11 6 26 14 NO 1018,3 18 0 0,0
19.08.2018 00:00:00 24,6 16,6 10 6 23 12 NO 1018,4 20 0 0,0
18.08.2018 23:00:00 24,4 17,4 8 5 23 12 NO 1018,4 17 0 0,0
18.08.2018 22:00:00 24,4 18,5 10 5 26 14 ONO 1017,8 15 0 0,0
18.08.2018 21:00:00 24,8 19,2 14 8 29 16 ONO 1017,3 16 31 0,0
18.08.2018 20:00:00 26,3 18,9 13 7 26 14 ONO 1016,8 14 60 -
18.08.2018 19:00:00 27,1 19,2 17 9 29 16 O 1016,6 14 60 0,0
18.08.2018 18:00:00 27,2 19,3 15 8 24 13 O 1016,6 16 60 0,0
18.08.2018 17:00:00 29,4 20,0 10 5 24 13 ONO 1016,9 17 60 0,0
18.08.2018 16:00:00 27,3 20,1 17 9 28 15 O 1017,6 19 60 0,0
18.08.2018 15:00:00 27,2 19,8 16 9 28 15 O 1018,1 14 60 0,0
18.08.2018 14:00:00 27,2 20,1 19 10 32 17 O 1018,4 20 60 -
18.08.2018 13:00:00 27,2 20,1 17 9 30 16 O 1018,9 14 60 0,0
18.08.2018 12:00:00 26,7 19,6 18 10 26 14 O 1019,1 18 60 0,0
18.08.2018 11:00:00 26,4 19,3 16 8 29 16 ONO 1018,8 20 60 0,0
18.08.2018 10:00:00 26,4 18,2 17 9 30 16 ONO 1018,7 15 37 0,0
18.08.2018 09:00:00 24,8 17,3 8 5 24 13 NO 1018,5 18 29 0,0
18.08.2018 08:00:00 23,5 15,0 10 6 23 12 NO 1018,2 18 0 -
18.08.2018 07:00:00 22,7 15,1 9 5 22 12 NO 1018,0 18 0 0,0
18.08.2018 06:00:00 22,9 16,2 9 5 19 10 NO 1017,7 16 0 0,0
18.08.2018 05:00:00 21,9 13,0 6 3 16 9 NO 1017,7 16 0 0,0
18.08.2018 04:00:00 - - - - - - - - - - -
18.08.2018 03:00:00 22,3 16,1 6 3 13 7 ONO 1017,5 13 0 0,0
18.08.2018 02:00:00 22,3 16,8 5 3 11 6 ONO 1017,6 13 0 -
18.08.2018 01:00:00 21,9 15,5 5 3 12 7 NO 1018,0 17 0 0,0
18.08.2018 00:00:00 22,6 16,1 7 4 13 7 ONO 1017,5 14 0 0,0
17.08.2018 23:00:00 22,7 17,1 4 2 11 6 NO 1017,3 13 0 0,0
17.08.2018 22:00:00 23,6 18,2 6 3 11 6 O 1016,6 11 0 0,0
17.08.2018 21:00:00 24,8 18,2 5 3 10 6 ONO 1016,2 13 30 0,0
17.08.2018 20:00:00 27,1 17,9 4 2 8 5 O 1015,8 13 60 -
17.08.2018 19:00:00 28,2 18,0 4 2 10 5 O 1015,8 18 60 0,0
17.08.2018 18:00:00 28,1 17,9 4 2 14 7 OZO 1016,0 15 60 0,0
17.08.2018 17:00:00 28,2 17,4 5 3 9 5 OZO 1016,5 17 58 0,0
17.08.2018 16:00:00 27,3 16,6 3 2 10 5 ZZW 1017,2 15 36 0,0
17.08.2018 15:00:00 28,8 17,4 4 2 11 6 Z 1017,4 15 60 0,0
17.08.2018 14:00:00 28,3 17,2 4 2 10 5 Z 1017,6 20 60 -
17.08.2018 13:00:00 27,1 17,0 4 2 10 5 ZW 1017,8 19 60 0,0
17.08.2018 12:00:00 25,9 17,3 6 3 14 7 ZW 1018,0 13 60 0,0
17.08.2018 11:00:00 - - - - - - - - - - -
17.08.2018 10:00:00 23,3 18,2 3 2 8 5 OZO 1017,4 12 35 0,0
17.08.2018 09:00:00 21,1 17,1 4 2 6 3 O 1017,0 12 33 0,0
17.08.2018 08:00:00 20,0 16,8 3 1 4 2 O 1016,6 7 0 -
17.08.2018 07:00:00 20,1 16,7 3 1 5 3 WZW 1016,3 11 0 0,0
17.08.2018 06:00:00 20,2 16,6 1 1 6 3 Z 1016,2 8 0 0,0
17.08.2018 05:00:00 20,5 16,6 2 1 5 3 ZO 1016,4 10 0 0,0
17.08.2018 04:00:00 20,6 16,6 2 1 7 4 NW 1016,8 16 0 0,0
17.08.2018 03:00:00 20,6 16,8 2 1 4 2 ZZW 1017,3 11 0 0,0
17.08.2018 02:00:00 - - - - - - - - - - -
17.08.2018 01:00:00 22,3 17,2 4 2 13 7 Z 1017,9 14 0 0,0
17.08.2018 00:00:00 22,7 16,5 5 3 13 7 ONO 1017,9 12 0 0,0
16.08.2018 23:00:00 23,3 15,1 5 3 11 6 ONO 1017,5 14 0 0,0
16.08.2018 22:00:00 23,8 16,0 5 3 11 6 ONO 1016,6 12 0 0,0
16.08.2018 21:00:00 24,8 14,2 6 3 10 6 ONO 1016,1 10 30 0,0
16.08.2018 20:00:00 - - - - - - - - - - -
16.08.2018 19:00:00 26,8 18,1 6 3 13 7 O 1015,5 14 60 0,0
16.08.2018 18:00:00 27,8 17,6 5 3 10 5 O 1015,9 12 60 0,0
16.08.2018 17:00:00 29,0 16,6 3 2 9 5 Z 1016,3 20 60 0,0
16.08.2018 16:00:00 28,7 17,2 5 3 11 6 ZW 1017,1 14 60 0,0
16.08.2018 15:00:00 28,4 17,3 8 4 14 8 ZZW 1017,6 16 54 0,0
16.08.2018 14:00:00 28,1 17,6 5 3 14 8 ZZW 1017,9 15 60 -
16.08.2018 13:00:00 27,6 18,3 8 4 16 8 OZO 1018,1 16 60 0,0
16.08.2018 12:00:00 27,3 18,0 4 2 10 5 ZO 1018,3 14 53 0,0
16.08.2018 11:00:00 24,9 17,9 5 3 7 4 ZW 1017,9 12 16 0,0
16.08.2018 10:00:00 23,4 18,7 3 2 6 3 ZZO 1017,6 10 14 0,0
16.08.2018 09:00:00 22,3 18,7 2 1 5 3 O 1017,4 10 0 0,0
16.08.2018 08:00:00 22,0 18,4 2 1 4 2 ZO 1017,2 8 0 -
16.08.2018 07:00:00 22,1 18,5 1 1 6 4 W 1017,2 9 0 0,0
16.08.2018 06:00:00 22,1 18,7 3 1 8 4 WZW 1016,9 9 0 0,0
16.08.2018 05:00:00 22,3 18,9 4 2 12 7 Z 1017,0 9 0 0,0
16.08.2018 04:00:00 22,8 19,0 6 4 16 8 ONO 1017,2 7 0 0,0
16.08.2018 03:00:00 23,1 19,3 7 4 19 11 NO 1017,3 8 0 0,0
16.08.2018 02:00:00 22,6 19,2 7 4 15 8 NO 1017,6 8 0 -
16.08.2018 01:00:00 22,7 19,1 7 4 14 8 ONO 1017,5 6 0 0,0
16.08.2018 00:00:00 22,9 19,1 8 5 15 8 ONO 1017,5 7 0 0,0
15.08.2018 23:00:00 23,0 19,1 6 3 13 7 ONO 1017,2 9 0 0,0
15.08.2018 22:00:00 23,1 18,6 7 4 14 8 O 1016,9 9 0 0,0
15.08.2018 21:00:00 24,5 17,5 3 2 8 4 O 1016,8 11 31 0,0
15.08.2018 20:00:00 26,4 18,2 5 3 8 4 WZW 1016,5 14 60 -
15.08.2018 19:00:00 27,2 18,5 4 2 9 5 ZW 1016,4 12 60 0,0
15.08.2018 18:00:00 - - - - - - - - - - -
15.08.2018 17:00:00 27,2 19,3 5 3 11 6 OZO 1017,3 11 60 0,0
15.08.2018 16:00:00 28,0 20,1 6 3 12 6 OZO 1017,8 10 60 0,0
15.08.2018 15:00:00 28,3 20,6 6 3 15 8 O 1018,1 11 60 0,0
15.08.2018 14:00:00 27,9 20,7 10 6 21 11 O 1018,6 15 60 -
15.08.2018 13:00:00 26,7 20,3 14 8 25 14 O 1018,7 9 42 0,0
15.08.2018 12:00:00 26,2 20,1 18 10 26 14 ONO 1018,8 10 43 0,0
15.08.2018 11:00:00 25,8 19,4 15 8 22 12 O 1018,4 10 25 0,0
15.08.2018 10:00:00 23,9 16,9 5 3 13 7 ZO 1018,4 16 4 0,0
15.08.2018 09:00:00 23,3 15,6 4 2 9 5 ONO 1017,9 15 32 0,0
15.08.2018 08:00:00 22,4 14,2 3 1 11 6 NNW 1017,7 16 0 -
15.08.2018 07:00:00 22,1 14,7 6 3 16 9 W 1017,2 18 0 0,0
15.08.2018 06:00:00 20,9 14,3 9 5 18 10 WZW 1017,2 19 0 0,0

tt = temperatuur
td = dauwpunt
ff = windsnelheid
fx = windstoten
dd = windrichting
ppp = luchtdruk
vv = zicht
sd = Zonneschijnduur
rr = neerslag

Weerstations in de omgeving